Bryce Canyon, UT

1:32 PM MST on November 11, 2019 (GMT -0700)
Bryce Canyon

Weather History for KBCE - October, 2019

Change the Weather History Date:

Monday, October 21, 2019

  Actual Average Record
Temperature  
Mean Temperature 36 °F -  
Max Temperature 54 °F 56 °F 73 °F (2003)
Min Temperature 18 °F 26 °F 14 °F (1976)
Degree Days  
Heating Degree Days 30    
Moisture  
Dew Point 12 °F    
Average Humidity 36    
Maximum Humidity 51    
Minimum Humidity 18    
Precipitation  
Precipitation 0.00 in - - ()
Sea Level Pressure  
Sea Level Pressure 30.13 in    
Wind  
Wind Speed 14 mph (NW)    
Max Wind Speed 26 mph    
Max Gust Speed 34 mph    
Visibility 10 miles    
Events      
Averages and records for this station are not official NWS values.
T = Trace of Precipitation, MM = Missing Value Source: NWS Daily Summary

Daily Weather History Graph

Daily Weather History Graph

Search for Another Location

Airport or City:

Astronomy

Oct. 21, 2019 Rise Set
Actual Time 7:42 AM MDT 6:43 PM MDT
Civil Twilight 7:15 AM MDT 7:09 PM MDT
Nautical Twilight 6:45 AM MDT 7:40 PM MDT
Astronomical Twilight 6:14 AM MDT 8:10 PM MDT
Moon 12:01 AM MDT (10/21) 2:59 PM MDT (10/21)
Length of Visible Light 11h 54m
Length of Day
11h 00m
Waning Gibbous, 47% of the Moon is Illuminated
Oct 21
Waning Gibbous
Oct 27
New
Nov 4
First Quarter
Nov 12
Full
Nov 19
Last Quarter

Hourly Weather History & Observations

Time (MDT) Temp. Windchill Dew Point Humidity Pressure Visibility Wind Dir Wind Speed Gust Speed Precip Events Conditions
12:53 AM 19.9 °F 8.6 °F 1.9 °F 46% 30.08 in 10.0 mi WNW 10.4 mph - N/A   Clear
1:53 AM 21.0 °F 9.3 °F 3.0 °F 46% 30.08 in 10.0 mi West 11.5 mph - N/A   Clear
2:53 AM 18.0 °F 5.4 °F 1.9 °F 50% 30.08 in 10.0 mi WNW 11.5 mph - N/A   Clear
3:53 AM 19.9 °F 8.6 °F 3.0 °F 48% 30.08 in 10.0 mi WNW 10.4 mph - N/A   Clear
4:53 AM 21.9 °F 11.0 °F 6.1 °F 51% 30.06 in 10.0 mi NW 10.4 mph - N/A   Clear
5:53 AM 32.0 °F 22.5 °F 12.0 °F 44% 30.04 in 10.0 mi NW 12.7 mph - N/A   Clear
6:53 AM 27.0 °F 18.7 °F 10.9 °F 51% 30.09 in 10.0 mi NW 8.1 mph - N/A   Clear
7:53 AM 35.1 °F 24.1 °F 12.9 °F 40% 30.08 in 10.0 mi WNW 19.6 mph 25.3 mph N/A   Clear
8:53 AM 37.9 °F 29.2 °F 14.0 °F 38% 30.09 in 10.0 mi WNW 15.0 mph - N/A   Clear
9:53 AM 42.1 °F 33.9 °F 15.1 °F 34% 30.12 in 10.0 mi WNW 17.3 mph - N/A   Clear
10:53 AM 45.0 °F 36.4 °F 14.0 °F 29% 30.12 in 10.0 mi WNW 23.0 mph 28.8 mph N/A   Clear
11:53 AM 48.0 °F - 14.0 °F 26% 30.14 in 10.0 mi NW 21.9 mph 28.8 mph N/A   Clear
12:53 PM 50.0 °F - 12.9 °F 23% 30.14 in 10.0 mi WNW 21.9 mph 29.9 mph N/A   Clear
1:53 PM 52.0 °F - 12.0 °F 20% 30.12 in 10.0 mi WNW 19.6 mph 27.6 mph N/A   Clear
2:53 PM 53.1 °F - 10.9 °F 19% 30.12 in 10.0 mi WNW 20.7 mph 32.2 mph N/A   Clear
3:53 PM 52.0 °F - 9.0 °F 18% 30.13 in 10.0 mi WNW 26.5 mph 34.5 mph N/A   Clear
4:53 PM 52.0 °F - 9.0 °F 18% 30.14 in 10.0 mi WNW 20.7 mph 29.9 mph N/A   Clear
5:53 PM 48.9 °F - 14.0 °F 25% 30.12 in 10.0 mi NW 19.6 mph 31.1 mph N/A   Clear
6:53 PM 46.0 °F 38.8 °F 16.0 °F 30% 30.17 in 10.0 mi NW 18.4 mph 27.6 mph N/A   Clear
7:53 PM 44.1 °F 37.4 °F 17.1 °F 34% 30.17 in 10.0 mi WNW 13.8 mph 23.0 mph N/A   Clear
8:53 PM 42.1 °F 35.2 °F 17.1 °F 37% 30.20 in 10.0 mi NW 12.7 mph - N/A   Clear
9:53 PM 37.9 °F 30.9 °F 15.1 °F 39% 30.23 in 10.0 mi NNE 10.4 mph - N/A   Clear
10:53 PM 37.0 °F 29.8 °F 17.1 °F 44% 30.24 in 10.0 mi NNW 10.4 mph - N/A   Clear
11:53 PM 35.1 °F 26.9 °F 17.1 °F 48% 30.23 in 10.0 mi NNW 11.5 mph - N/A   Clear